Regional Weather Roundup
Issued by NWS

Home | Current Version | Previous Version | Text Only | Print | Product List | Glossary On
Versions: 1 2 3 4 5 6 7 8 9 10 11 12 13 14 15 16 17 18 19 20 21 22 23 24 25 26 27 28 29 30 31 32 33 34 35 36 37 38 39 40 41 42 43 44 45 46 47 48 49 50
000
ASUS44 KFWD 210403
RWRTX
NORTH TEXAS HOURLY WEATHER ROUNDUP
NATIONAL WEATHER SERVICE FORT WORTH TX
1100 PM CDT WED SEP 20 2017

NOTE: "FAIR" INDICATES FEW OR NO CLOUDS BELOW 12,000 FEET WITH NO
SIGNIFICANT WEATHER AND/OR OBSTRUCTIONS TO VISIBILITY.

TXZ118-119-210500-
DALLAS/FORT WORTH METROPLEX

CITY           SKY/WX    TMP DP  RH WIND       PRES   REMARKS
DFW AIRPORT    MOCLDY    88  70  55 S16       29.87R HX  93
DALLAS LOVE    PTCLDY    87  69  54 S15       29.89R HX  91
FTW MEACHAM    PTCLDY    88  72  58 S17G25    29.88R HX  94
DAL-EXECUTIVE  CLEAR     86  70  58 S8        29.90R HX  90
FTW-ALLIANCE   CLOUDY    86  71  60 S14G20    29.88R HX  91
FTW-NAS-JRB    PTCLDY    88  69  53 S14G24    29.88R HX  92
FTW-SPINKS     CLEAR     85  69  58 S10       29.90S
ARLINGTON      CLEAR     86  71  60 SE12      29.88R HX  91
GRAND PRAIRIE  CLEAR     85  68  55 SE8       29.90R
ADDISON        CLEAR     85  70  60 S12       29.91R
MESQUITE       CLEAR     83  69  61 SE8       29.90R
LANCASTER      CLEAR     83  69  64 S7        29.91R
$$

TXZ091>094-102>105-117-120-121-131>134-210500-
NORTH CENTRAL TEXAS

CITY           SKY/WX    TMP DP  RH WIND       PRES   REMARKS
SHRMAN/DENISON NOT AVBL
GAINESVILLE    CLOUDY    82  70  67 S10       29.91R
BOWIE          CLOUDY    84  70  63 SE13      29.87S
BRIDGEPORT     MOCLDY    85  68  56 S8        29.89R
DECATUR        CLOUDY    85  69  59 SE12      29.88R
DENTON         CLOUDY    85  71  63 S13       29.88R HX  90
MCKINNEY       CLEAR     83  72  69 S12       29.90R
BONHAM         CLEAR     81  70  69 S12       29.91R
ROCKWALL       CLEAR     83  70  64 S8        29.90R
TERRELL        CLEAR     82  69  64 SE9       29.91R
WAXAHACHIE     CLEAR     83  70  64 SE8       29.92R
CLEBURNE       CLEAR     84  72  65 S12G18    29.91R
$$

TXZ083>090-098>101-113>116-127>130-139>142-154-155-210500-
WESTERN NORTH TEXAS

CITY           SKY/WX    TMP DP  RH WIND       PRES   REMARKS
WICHITA FALLS  CLOUDY    84  70  62 SE10      29.85R
WF-KICKAPOO    CLOUDY    84  71  63 SE6       29.87R
VERNON         CLOUDY    82  65  54 SE8       29.84R
ABILENE        CLOUDY    79  62  56 SE9       29.88R
ABILENE-DYESS  PTCLDY    86  66  50 S13       29.85S
BRECKENRIDGE   CLOUDY    83  69  61 S13G21    29.85S
CISCO          CLOUDY    86  68  54 SE13      29.90R
EASTLAND       CLOUDY    80  71  74 S9        29.89R
RANGER         CLOUDY    84  69  60 S12       29.89S
MINERAL WELLS  CLOUDY    85  69  58 SE14      29.85S
STEPHENVILLE   CLOUDY    83  68  60 S8        29.93R
COMANCHE       CLOUDY    83  70  62 S14G20    29.90R
BROWNWOOD      CLOUDY    84  68  58 SE10G21   29.89R
COLEMAN        CLOUDY    84  67  55 S8        29.89F
$$

TXZ143>147-156>162-174-175-210500-
CENTRAL TEXAS

CITY           SKY/WX    TMP DP  RH WIND       PRES   REMARKS
WACO           CLEAR     85  72  65 S13       29.90R HX  91
WACO-TSTC      CLEAR     84  70  61 S14       29.90R
WACO-MCGREGOR  CLEAR     83  71  67 S12       29.91R
HILLSBORO      CLEAR     84  70  63 SE10      29.91R
CORSICANA      CLEAR     82  74  76 SE15      29.92R
MEXIA          CLEAR     80  72  76 S15       29.91S
HEARNE         CLEAR     81  76  84 SE6       29.94R
CAMERON        CLEAR     82  73  75 S8        29.92R
TEMPLE         CLOUDY    83  73  72 SE17      29.91S
KILLEEN        CLOUDY    82  72  71 SE14      29.91R
FORT HOOD      CLOUDY    82  71  70 SE13      29.88R
GATESVILLE     CLEAR     84  70  61 SE9G15    29.92S
HAMILTON       CLOUDY    83  69  62 S12       29.92R
LAMPASAS       PTCLDY    83  72  70 S7        29.91S
$$

TXZ095>097-106>112-122>126-135>138-148>153-164>167-210500-
EAST TEXAS

CITY           SKY/WX    TMP DP  RH WIND       PRES   REMARKS
PARIS          CLEAR     77  70  79 SE7       29.93R
SULPHUR SPRNGS CLEAR     83  71  66 S12       29.94R
MOUNT PLEASANT CLEAR     79  73  81 SE6       29.95R
GILMER         CLEAR     79  71  77 SE7       29.95R
MINEOLA        CLEAR     81  73  78 SE7       29.93R
TYLER          CLEAR     80  75  84 S8        29.94R
LONGVIEW       CLEAR     78  74  87 S9        29.94R
MARSHALL       CLEAR     75  70  83 S6        29.98R
ATHENS         CLEAR     79  72  78 SE7       29.92R
PALESTINE      CLEAR     81  75  84 SE7       29.95R
JACKSONVILLE   CLEAR     78  75  91 S9        29.97S
CENTER         CLEAR     78  76  93 SE3       29.99R
NACOGDOCHES    PTCLDY    76  75  97 SE6       29.97S
LUFKIN         CLEAR     76  75  97 SE5       29.96R
$$

SUPPLEMENTAL OBSERVATIONS (NWS FORT WORTH AREA)

CITY           SKY/WX    TMP DP  RH WIND       PRES   REMARKS
$$

SUPPLEMENTAL OBSERVATIONS (NWS NORMAN AREA)

CITY           SKY/WX    TMP DP  RH WIND       PRES   REMARKS
ODELL            N/A     81  69  68 SE13      29.84S
CROWELL          N/A     77  56  48 S5        29.84R
KNOX CITY        N/A     83  56  40 SE9       29.85R
SEYMOUR          N/A     81  64  55 SE12      29.85R
$$

SUPPLEMENTAL OBSERVATIONS (NWS SAN ANGELO AREA)

CITY           SKY/WX    TMP DP  RH WIND       PRES   REMARKS
WEINERT          N/A     84  64  51 S6        29.86R
HASKELL          N/A     83  62  48 SE5       29.86R
THROCKMORTON     N/A     83  67  59 S3        29.86S
STAMFORD         N/A     82  63  52 S12       29.85R
CLYDE            N/A     80  63  55 S9        29.91R
$$

SUPPLEMENTAL OBSERVATIONS (NWS SHREVEPORT AREA)

CITY           SKY/WX    TMP DP  RH WIND       PRES   REMARKS
$$

SUPPLEMENTAL OBSERVATIONS ARE A COLLECTION OF AUTOMATED INSTRUMENTS
THAT ARE MAINTAINED BY A VARIETY OF FEDERAL AND STATE AGENCIES.
CERTAIN ELEMENTS...SUCH AS HUMIDITY VALUES AND SUSTAINED WIND
SPEEDS...MAY BE APPROXIMATED.




USA.gov is the U.S. government's official web portal to all federal, state and local government web resources and services.